Location: Waco, TX
(31.5480°N, 97.1670°W)
Time: 04:30:31
(UTC-05:00)

ISS - Pass Details

Date: 08 May 2021
Orbit: 417 x 422 km, 51.6° (Epoch: 15 May)

Event Time Altitude Azimuth Distance (km) Brightness Sun altitude
Rises 08:23:33 0° 313° (NW) 2,368 -0.3 21.1°
Reaches altitude 10° 08:25:39 10° 311° (NW) 1,502 -1.3 21.6°
Maximum altitude 08:29:01 73° 226° (SW) 442 -3.5 22.3°
Drops below altitude 10° 08:32:22 10° 142° (SE) 1,494 -0.4 23.0°
Sets 08:34:27 0° 140° (SE) 2,355 0.5 23.4°
